[[{"header":{"parameterUnit":"m.s-1","parameterCategory":1,"la1":30.2991,"la2":30.254,"lo1":-89.0895,"lo2":-89.0444,"dy":0.0017,"dx":0.0017,"nx":28,"ny":28,"refTime":"2026-02-13T03:00:00:Z","depth":0,"parameterNumber":2,"parameterNumberName":"U-component_of_WINDS"},"data":[0,0,0,0,0,0,0,0,0,0,0,0,0,0,0,0,0,0,0,0,0,0,0,0,0,0,0,0,0,0,0,0,0,0,0,0,0,0,0,0,0,0,0,0,0,0,0,0,0,0,0,0,0,0,0,0,0,0,-3.7529,-3.753,0,-3.7633,-3.7634,-3.7635,-3.7567,-3.7563,-3.756,-3.7557,-3.7668,-3.7674,-3.7679,0,0,0,0,0,0,0,0,0,0,0,0,0,-3.7276,-3.7281,-3.7529,-3.753,-3.7531,-3.7632,-3.7634,-3.7635,-3.7567,-3.7563,-3.7559,-3.7556,-3.7666,-3.7673,-3.768,0,0,0,0,0,0,0,0,0,0,0,0,0,-3.7384,-3.7283,-3.7529,-3.7509,-3.7509,-3.7632,-3.7634,-3.7636,-3.7568,-3.7563,-3.7558,-3.7554,-3.7664,-3.7672,-3.7681,-3.783,0,0,-3.7708,-3.7712,0,0,0,0,0,0,0,0,-3.7378,-3.7393,-3.7511,-3.7511,-3.751,-3.7582,-3.7585,-3.7701,-3.7569,-3.7546,-3.7557,-3.7552,-3.7643,-3.7654,-3.7684,-3.7835,-3.784,-3.7709,-3.7714,-3.7718,-3.772,0,0,0,0,0,0,0,-3.737,-3.7388,-3.757,-3.7513,-3.7512,-3.7497,-3.7507,-3.7607,-3.762,-3.7547,-3.7543,-3.7556,-3.7642,-3.7675,-3.7686,-3.7842,-3.7708,-3.7716,-3.7722,-3.7725,-3.8124,-3.8129,0,0,0,0,0,0,-3.7364,-3.7383,-3.7567,-3.7573,-3.7431,-3.7506,-3.7517,-3.7564,-3.7619,-3.7622,-3.756,-3.7552,-3.7662,-3.7675,-3.7689,-3.7868,-3.7718,-3.7726,-3.7731,-3.8118,-3.8125,-3.813,0,0,0,0,0,0,-3.7359,-3.7381,-3.7562,-3.7477,-3.7498,-3.7515,-3.7568,-3.7568,-3.7601,-3.7628,-3.763,-3.759,-3.7659,-3.7677,-3.7796,-3.7871,-3.773,-3.7738,-3.8112,-3.812,-3.8128,-3.8228,0,0,0,0,0,0,-3.7352,-3.738,-3.7435,-3.7478,-3.7503,-3.7666,-3.7573,-3.7574,-3.7616,-3.7607,-3.7657,-3.7661,-3.7657,-3.7783,-3.7805,-3.7881,-3.7745,-3.8105,-3.8116,-3.8125,-3.8218,-3.8238,-3.8255,0,0,0,0,0,-3.7343,-3.746,-3.7438,-3.7461,-3.7573,-3.767,-3.7685,-3.7676,-3.7622,-3.7679,-3.7697,-3.766,-3.786,-3.7796,-3.782,-3.79,-3.8101,-3.8113,-3.8124,-3.8209,-3.8234,-3.8255,0,0,0,0,0,0,-3.7426,-3.7465,-3.7441,-3.7575,-3.762,-3.7658,-3.773,-3.7703,-3.7764,-3.7754,-3.7742,-3.7754,-3.7878,-3.7901,-3.7829,-3.8048,-3.7972,-3.7989,-3.8028,-3.8052,-3.8071,-3.8062,-3.7752,0,0,0,0,0,-3.7459,-3.7534,-3.7565,-3.768,-3.7703,-3.7713,-3.7755,-3.7745,-3.7791,-3.781,-3.7836,-3.7884,-3.7957,-3.8006,-3.8075,-3.8221,-3.8232,-3.8288,-3.8307,-3.8322,-3.8337,-3.8417,-3.8443,-3.8169,-3.8169,-3.8169,0,0,-3.753,-3.7561,-3.7608,-3.7697,-3.773,-3.7809,-3.7729,-3.7816,-3.7875,-3.7823,-3.7937,-3.7958,-3.8011,-3.8144,-3.8204,-3.8167,-3.8415,-3.8337,-3.8349,-3.8356,-3.8432,-3.8458,-3.8481,-3.8177,-3.8176,-3.8175,0,0,-3.7699,-3.7729,-3.7828,-3.7864,-3.7915,-3.7921,-3.7945,-3.7989,-3.8,-3.8114,-3.8078,-3.8149,-3.8275,-3.8315,-3.8351,-3.8538,-3.8506,-3.8561,-3.8659,-3.8737,-3.8759,-3.8778,-3.8845,-3.8869,-3.8576,-3.8576,-3.8576,0,-3.778,-3.7896,-3.7884,-3.7973,-3.8014,-3.7971,-3.8073,-3.8108,-3.818,-3.821,-3.8167,-3.8326,-3.8359,-3.8501,-3.8546,-3.8578,-3.8606,-3.8554,-3.8756,-3.8776,-3.8793,-3.8857,-3.8882,-3.8582,-3.8581,-3.8581,-3.858,0,-3.7994,-3.8075,-3.815,-3.8219,-3.8269,-3.8364,-3.8368,-3.842,-3.8407,-3.8418,-3.8535,-3.8573,-3.8649,-3.8683,-3.867,-3.8825,-3.88,-3.8757,-3.868,-3.8826,-3.8885,-3.891,-3.8591,-3.8589,-3.8587,-3.8585,0,0,-3.8216,-3.8278,-3.8306,-3.8338,-3.8392,-3.8455,-3.855,-3.8624,-3.8669,-3.8722,-3.8801,-3.8911,-3.8872,-3.8914,-3.8906,-3.8975,-3.9121,-3.8924,-3.8925,-3.8959,-3.9294,-3.9326,-3.9354,-3.9101,-3.9105,-3.9109,-3.929,0,-3.8388,-3.855,-3.8543,-3.8697,-3.8772,-3.8734,-3.8816,-3.886,-3.8874,-3.8941,-3.8957,-3.9035,-3.8978,-3.9003,-3.9069,-3.9089,-3.9188,-3.9076,-3.9176,-3.918,-3.9164,-3.9385,-3.9418,-3.9587,-3.9313,-3.9317,-3.932,0,-3.8609,-3.8668,-3.8828,-3.8873,-3.8904,-3.8978,-3.9046,-3.9111,-3.9161,-3.9166,-3.9214,-3.9195,-3.9293,-3.9215,-3.935,-3.9274,-3.9316,-3.9332,-3.9338,-3.9347,-3.9258,-3.94,-3.964,-3.9666,-3.9357,-3.9354,-3.9351,0,-3.8755,-3.8875,-3.8986,-3.9015,-3.9069,-3.9123,-3.9148,-3.9193,-3.9238,-3.9299,-3.9328,-3.94,-3.9439,-3.9496,-3.9498,-3.9441,-3.9636,-3.9557,-3.9644,-3.9645,-3.9686,-3.9684,-3.9937,-3.9714,-3.9713,-3.9713,-3.9712,0,-3.8948,-3.9047,-3.9053,-3.9121,-3.9233,-3.9225,-3.9336,-3.9357,-3.9397,-3.9471,-3.9443,-3.9513,-3.9511,-3.9583,-3.9586,-3.9699,-3.9717,-3.9725,-3.9724,-3.9727,-3.9726,-3.9753,-3.9742,-3.972,-3.9718,-3.9717,-3.9716,0,-3.9129,-3.9136,-3.9256,-3.9298,-3.9311,-3.9391,-3.9428,-3.9495,-3.9506,-3.96,-3.9622,-3.9641,-3.9724,-3.9732,-3.9829,-3.9831,-3.9968,-3.9955,-3.995,-3.9948,-4.0035,-4.0027,-4.0314,-4.0352,-4.0104,-4.0107,-4.0109,0,-3.9251,-3.9327,-3.9377,-3.9424,-3.9452,-3.9528,-3.9574,-3.957,-3.962,-3.9683,-3.9742,-3.9823,-3.9886,-4.0022,-4.0046,-4.012,-4.0109,-4.0205,-4.012,-4.0121,-4.0111,-4.0106,-4.0114,-4.0221,-4.0224,-4.0226,-4.0228,0,-3.9466,-3.9467,-3.9533,-3.9603,-3.9658,-3.9713,-3.9764,-3.9804,-3.9807,-3.9865,-3.9949,-3.9999,-4.0098,-4.0179,-4.0252,-4.0281,-4.0256,-4.0254,-4.0278,-4.0282,-4.0276,-4.0281,-3.9995,-4.0247,-4.0245,-4.0244,-4.0243,-4.0242,-3.9622,-3.9688,-3.9734,-3.981,-3.9848,-3.9897,-3.9961,-3.9981,-4.0051,-4.013,-4.0125,-4.0218,-4.0268,-4.0364,-4.0398,-4.0473,-4.0441,-4.0476,-4.0485,-4.0493,-4.0502,-4.0265,-4.0486,-4.0486,-4.0485,-4.0485,-4.0484,0,-3.9836,-3.9864,-3.9934,-4.0006,-4.0067,-4.0037,-4.0092,-4.0145,-4.0227,-4.0275,-4.0339,-4.0437,-4.0516,-4.0546,-4.0624,-4.0678,-4.0668,-4.0698,-4.0694,-4.0701,-4.0526,-4.0497,-4.0704,-4.0704,-4.0704,-4.0704,-4.0704,-4.0704,-3.9954,-4.0065,-4.0071,-4.0201,-4.0229,-4.0319,-4.0353,-4.0399,-4.0437,-4.0547,-4.0612,-4.0631,-4.0673,-4.0753,-4.0825,-4.0832,-4.0862,-4.0897,-4.09,-4.0735,-4.0713,-4.0692,-4.0665,-4.0904,-4.0904,-4.1068,-4.107,-4.1071]},{"header":{"parameterUnit":"m.s-1","parameterCategory":1,"la1":30.2991,"la2":30.254,"lo1":-89.0895,"lo2":-89.0444,"dy":0.0017,"dx":0.0017,"nx":28,"ny":28,"refTime":"2026-02-13T03:00:00:Z","depth":0,"parameterNumber":3,"parameterNumberName":"V-component_of_WINDS"},"data":[0,0,0,0,0,0,0,0,0,0,0,0,0,0,0,0,0,0,0,0,0,0,0,0,0,0,0,0,0,0,0,0,0,0,0,0,0,0,0,0,0,0,0,0,0,0,0,0,0,0,0,0,0,0,0,0,0,0,0.7548,0.7548,0,0.7563,0.7563,0.7564,0.7566,0.7566,0.7566,0.7566,0.7579,0.758,0.758,0,0,0,0,0,0,0,0,0,0,0,0,0,0.7521,0.7521,0.7548,0.7548,0.7549,0.7563,0.7564,0.7564,0.7566,0.7566,0.7566,0.7566,0.7579,0.758,0.758,0,0,0,0,0,0,0,0,0,0,0,0,0,0.7534,0.7522,0.7548,0.7552,0.7552,0.7563,0.7564,0.7564,0.7566,0.7566,0.7566,0.7566,0.7579,0.758,0.758,0.7588,0,0,0.7583,0.7583,0,0,0,0,0,0,0,0,0.7533,0.7535,0.7551,0.7552,0.7552,0.7563,0.7559,0.7572,0.7566,0.7561,0.7566,0.7566,0.7574,0.7575,0.7578,0.7589,0.7589,0.7583,0.7583,0.7583,0.7584,0,0,0,0,0,0,0,0.7532,0.7534,0.7554,0.7551,0.7552,0.7552,0.7554,0.7561,0.7568,0.7561,0.7562,0.7564,0.7574,0.7577,0.7578,0.759,0.7583,0.7583,0.7584,0.7584,0.7609,0.7609,0,0,0,0,0,0,0.7531,0.7534,0.7554,0.7555,0.7542,0.7553,0.7555,0.756,0.7568,0.7569,0.7564,0.7564,0.7576,0.7578,0.7579,0.759,0.7583,0.7584,0.7584,0.7609,0.7609,0.7609,0,0,0,0,0,0,0.753,0.7533,0.7553,0.7544,0.7547,0.7554,0.7559,0.756,0.7563,0.757,0.7571,0.7566,0.7576,0.7578,0.7586,0.759,0.7584,0.7585,0.7608,0.7609,0.7609,0.7611,0,0,0,0,0,0,0.753,0.7533,0.7536,0.7544,0.7547,0.7561,0.7559,0.756,0.7565,0.7565,0.7572,0.7573,0.7576,0.7585,0.7587,0.7591,0.7585,0.7608,0.7609,0.7609,0.761,0.7611,0.7612,0,0,0,0,0,0.7529,0.7535,0.7536,0.7538,0.7552,0.7561,0.7562,0.7566,0.7565,0.7568,0.7573,0.7573,0.7589,0.7586,0.7588,0.7592,0.7608,0.7609,0.7609,0.761,0.7611,0.7612,0,0,0,0,0,0,0.7525,0.7536,0.7537,0.7546,0.7553,0.7561,0.7565,0.7567,0.7573,0.7573,0.7577,0.7579,0.7587,0.759,0.7587,0.7601,0.7599,0.76,0.7599,0.76,0.76,0.7599,0.7586,0,0,0,0,0,0.7526,0.7533,0.7542,0.7549,0.7552,0.7558,0.7562,0.7565,0.7572,0.7574,0.7579,0.7585,0.7591,0.7596,0.7602,0.7611,0.7613,0.7615,0.7615,0.7616,0.7617,0.7623,0.7624,0.7611,0.7611,0.7611,0,0,0.7526,0.7533,0.7537,0.7548,0.7554,0.7561,0.756,0.7568,0.7573,0.7575,0.7584,0.7588,0.7594,0.7603,0.7608,0.7606,0.7621,0.7617,0.7617,0.7618,0.7624,0.7625,0.7626,0.7612,0.7611,0.7611,0,0,0.7532,0.7537,0.7545,0.755,0.7559,0.7563,0.7565,0.7574,0.7577,0.7586,0.7588,0.7594,0.7605,0.761,0.7614,0.7623,0.7624,0.7625,0.7628,0.7634,0.7635,0.7636,0.764,0.7642,0.7626,0.7626,0.7626,0,0.7531,0.7543,0.7548,0.7556,0.7561,0.7564,0.7572,0.7577,0.7586,0.759,0.7589,0.7604,0.7608,0.7619,0.7622,0.7625,0.7627,0.7624,0.7635,0.7636,0.7637,0.7641,0.7642,0.7626,0.7626,0.7626,0.7626,0,0.7542,0.755,0.7555,0.7566,0.7572,0.7579,0.7586,0.7591,0.7593,0.7598,0.7607,0.7613,0.7621,0.7624,0.7626,0.7636,0.7635,0.7634,0.7632,0.7638,0.7642,0.7643,0.7626,0.7626,0.7626,0.7626,0,0,0.7545,0.756,0.7562,0.7567,0.7578,0.7584,0.7592,0.7601,0.7605,0.7612,0.7619,0.7629,0.7629,0.7634,0.7637,0.7642,0.765,0.7641,0.7641,0.7643,0.7662,0.7662,0.7664,0.765,0.765,0.7651,0.7661,0,0.7552,0.7567,0.7573,0.7585,0.7593,0.7597,0.7604,0.7611,0.7616,0.7623,0.7628,0.7635,0.7634,0.7637,0.7642,0.7648,0.7653,0.7647,0.7657,0.7657,0.7656,0.7666,0.7666,0.7676,0.7663,0.7663,0.7663,0,0.7562,0.7571,0.7584,0.7595,0.7599,0.7605,0.7614,0.7621,0.7629,0.7633,0.7639,0.7641,0.765,0.7647,0.7659,0.7655,0.7659,0.7662,0.7663,0.7664,0.7661,0.7668,0.7679,0.7681,0.7665,0.7665,0.7665,0,0.7563,0.7578,0.7589,0.7593,0.7606,0.7611,0.7616,0.7624,0.763,0.7638,0.7642,0.765,0.7655,0.7661,0.7666,0.7664,0.7678,0.7676,0.7681,0.7681,0.7684,0.7684,0.7697,0.7686,0.7686,0.7686,0.7686,0,0.7571,0.7579,0.759,0.7596,0.7606,0.7613,0.7622,0.7627,0.7635,0.7642,0.7646,0.7653,0.7659,0.7666,0.767,0.768,0.7682,0.7685,0.7686,0.7685,0.7684,0.7688,0.7687,0.7687,0.7686,0.7686,0.7686,0,0.7574,0.7581,0.7593,0.7605,0.7608,0.7615,0.7625,0.7631,0.7637,0.7646,0.7649,0.7657,0.7666,0.7672,0.7683,0.7686,0.7697,0.7698,0.7695,0.7695,0.7701,0.7701,0.7717,0.7719,0.7707,0.7707,0.7707,0,0.7578,0.7585,0.7598,0.7604,0.761,0.7619,0.7625,0.7632,0.7638,0.7649,0.7655,0.7665,0.7673,0.7688,0.7694,0.7703,0.7704,0.7709,0.7705,0.7705,0.7705,0.7705,0.7706,0.771,0.771,0.771,0.771,0,0.7585,0.7589,0.7599,0.761,0.7618,0.7626,0.7635,0.764,0.7648,0.7655,0.7665,0.7672,0.7684,0.7694,0.7704,0.7709,0.7711,0.7711,0.7713,0.7712,0.7711,0.7713,0.7697,0.7711,0.7711,0.7711,0.7711,0.7711,0.759,0.7597,0.7608,0.7618,0.7626,0.7634,0.7642,0.7649,0.7658,0.7669,0.7673,0.7684,0.7693,0.7706,0.7712,0.772,0.772,0.7722,0.7723,0.7723,0.7724,0.7709,0.7722,0.7722,0.7722,0.7722,0.7722,0,0.7598,0.7605,0.7615,0.7628,0.7637,0.7639,0.7649,0.7656,0.7666,0.7675,0.7684,0.7696,0.7706,0.7714,0.7725,0.773,0.7731,0.7732,0.7732,0.7734,0.7724,0.7721,0.7731,0.7731,0.7731,0.7731,0.7731,0.7731,0.7603,0.7615,0.7621,0.7637,0.7644,0.7656,0.7662,0.767,0.7677,0.7691,0.77,0.7706,0.7714,0.7726,0.7735,0.7737,0.7741,0.7742,0.7744,0.7735,0.7734,0.7733,0.7731,0.7743,0.7743,0.7754,0.7754,0.7754]}]]